Regional Weather Roundup
Issued by NWS

Home | Current Version | Previous Version | Graphics & Text | Print | Product List | Glossary On
Versions: 1 2 3 4 5 6 7 8 9 10 11 12 13 14 15 16 17 18 19 20 21 22 23 24 25 26 27 28 29 30 31 32 33 34 35 36 37 38 39 40 41 42 43 44 45 46 47 48 49 50
000
ASUS43 KDTX 300401
RWRMI
MICHIGAN HOURLY REGIONAL WEATHER ROUNDUP
NATIONAL WEATHER SERVICE DETROIT/PONTIAC MI
1200 AM EDT MON MAY 30 2016

NOTE: "FAIR" INDICATES FEW OR NO CLOUDS BELOW 12,000 FEET WITH NO
SIGNIFICANT WEATHER AND/OR OBSTRUCTION TO VISIBILITY.

MIZ047>049-052>055-059>063-066>070-074>076-081>083-300500-
SOUTHEAST LOWER MICHIGAN

CITY           SKY/WX    TMP DP  RH WIND       PRES   REMARKS
ADRIAN         CLEAR     66  56  70 NW3       30.01R
ALMA           CLEAR     63  58  84 SW5       29.96S
ANN ARBOR      CLEAR     63  55  75 CALM      29.99R
CARO           CLEAR     63  56  78 SW5       29.94S
DETROIT CITY   PTCLDY    73  55  53 NW6       29.98R
DETROIT        PTCLDY    70  56  61 W3        29.99R
FLINT          CLEAR     67  56  67 S5        29.97S
GROSSE ILE     CLEAR     73  57  56 NW6       29.97S
HILLSDALE      CLEAR     63  55  76 CALM      30.01S
HOWELL         CLEAR     66  54  66 CALM      29.98F

CITY           SKY/WX    TMP DP  RH WIND       PRES   REMARKS
JACKSON        CLEAR     62  57  83 SW3       30.00S
LAMBERTVILLE   CLEAR     72  56  58 CALM      30.00R
LANSING        CLEAR     66  57  72 SW5       29.97F
LAPEER         FAIR      65  56  71 CALM      29.98R
MASON          CLEAR     64  56  75 SE3       29.99S
MONROE         CLEAR     70  57  63 NW7       29.99R
MT. CLEMENS    PTCLDY    72  57  59 W7        29.97R
PONTIAC        CLEAR     69  56  62 SW5       29.99R
PORT HOPE        N/A     69  59  70 VRB3      29.90F
PORT HURON     PTCLDY    63  63 100 CALM      29.97S FOG
TRI CITIES     CLEAR     69  58  67 SW9       29.95S
MIDLAND        FAIR      66  58  74 SW3       29.93S
TROY           CLEAR     73  55  52 W5        30.00S
SAGINAW HB     CLEAR     68  55  64 SW5       29.94F
$$
MIZ043>046-050>051-056>058-064>065-071>073-077>080-300500-
SOUTHWEST LOWER MICHIGAN

CITY           SKY/WX    TMP DP  RH WIND       PRES   REMARKS
BATTLE CREEK   CLEAR     64  57  78 SW6       29.99F
BENTON HARBOR  CLEAR     65  56  72 W3        29.99R
BIG RAPIDS     PTCLDY    65  60  83 CALM      29.95S
COLDWATER      CLEAR     59  55  85 CALM      30.00S
FREMONT        FAIR      61  58  92 CALM      29.96S
HOLLAND        CLEAR     64  55  72 SW3       29.98S
GRAND RAPIDS   CLEAR     68  58  70 SW6       29.97F
IONIA          FAIR      65  55  70 SW6       29.97S
KALAMAZOO      CLEAR     66  56  70 SW3       29.99S
LUDINGTON      PTCLDY    58  56  91 CALM      29.95S
MARSHALL       CLEAR     63  57  81 CALM      29.99S
MOUNT PLEASANT CLEAR     66  58  74 CALM      29.94S
MUSKEGON       CLEAR     60  53  77 CALM      29.97S
SOUTH HAVEN    CLEAR     67  56  67 CALM      29.99S
$$
MIZ016>042-300500-
NORTHERN LOWER MICHIGAN

CITY           SKY/WX    TMP DP  RH WIND       PRES   REMARKS
ALPENA         CLEAR     67  57  70 SW7       29.87F
BEAVER ISLAND  CLOUDY    56  54  93 W7        29.89R
BELLAIRE       CLOUDY    67  58  72 SW6       29.91R
CADILLAC       CLEAR     62  58  86 SW6       29.94S
CHARLEVOIX     CLOUDY    64  57  80 W7        29.92S
FRANKFORT      CLOUDY    61  57  86 W3        29.93R
GAYLORD        MOCLDY    66  58  75 W10       29.90F
GRAYLING       PTCLDY    66  58  77 W6        29.93S
HARBOR SPRINGS MOCLDY    61  56  84 W7        29.88S
HOUGHTON LAKE  PTCLDY    66  59  78 SW9       29.93F
OSCODA         CLEAR     67  56  66 SW9       29.89S
PELLSTON       PTCLDY    61  55  81 SW9       29.88S
ROGERS CITY    MOCLDY    67  56  70 SW9       29.87S
TRAVERSE CITY  MOCLDY    69  58  67 W9        29.90R
$$
MIZ007>008-015-300500-
EASTERN UPPER MICHIGAN

CITY           SKY/WX    TMP DP  RH WIND       PRES   REMARKS
KINROSS          N/A     59  57  94 W6        29.86R
MACKINAC ISLAN MOCLDY    57  55  94 W9        29.86S
NEWBERRY       CLOUDY    59  58  97 CALM      29.86S
S. S. MARIE    LGT RAIN  60  58  92 W6        29.84S FOG
MUNISING         N/A     62  57  83 VRB5      29.85R
$$
MIZ004>006-011>014-085-300500-
CENTRAL UPPER MICHIGAN

CITY           SKY/WX    TMP DP  RH WIND       PRES   REMARKS
MANISTIQUE     CLOUDY    62  61  97 SW3       29.87S
ESCANABA       CLEAR     61  57  88 CALM      29.89R
MENOMINEE      CLEAR     64  57  78 CALM      29.93R
SAWYER-GWINN   CLEAR     57  55  91 W7        29.88S
$$
MIZ001>003-009>011-084-300500-
WESTERN UPPER MICHIGAN

CITY           SKY/WX    TMP DP  RH WIND       PRES   REMARKS
IRON MOUNTAIN  CLEAR     60  56  86 W5        29.90R
HOUGHTON       CLEAR     56  51  84 W12       29.86S
COPPER HARBOR    N/A     61  54  77 N16G29    29.82S
IRONWOOD       CLEAR     54  54 100 CALM      29.91R
$$

ABBREVIATIONS USED IN REMARKS
   TC - TEMPERATURE IN CELSIUS
  WCI - WIND CHILL INDEX
   HX - HEAT INDEX
  VSB - VISIBILITY





USA.gov is the U.S. government's official web portal to all federal, state and local government web resources and services.